Vancouver, WA
on Friday, December 21, 2012

Friday
Previous Day Next Day
Daily Summary
 ActualAverageRecord
Temperature
Mean Temperature °F 40°F  
Max Temperature 46°F 46°F 61°F (1906)
Min Temperature 29°F 34°F 11°F (1998)
Degree Days
Heating Degree Days 27    
Month to date heating degree days 442  
Since 1 July heating degree days 1264  
Cooling Degree Days 0    
Month to date cooling degree days 0  
Year to date cooling degree days 398  
Moisture
Dew Point 34°F   
Average Humidity 88    
Maximum Humidity 100    
Minimum Humidity 76    
Precipitation
Precipitation 0.09 in 0.23 in 2.34 in (1915)
Month to date precipitation 6.02 4.49  
Year to date precipitation 44.34 36.86  
Snow
Snow 0.00 in in in ()
Month to date snowfall 0.0  
Since 1 July snowfall 0.0  
Snow Depth 0.00 in   
Wind
Wind Speed 4 mph   
Max Wind Speed 12 mph   
Max Gust Speed 15 mph   
Visibility 7 miles   
Events Rain   

Key: T is trace of precipitation, MM is missing value
Source: NWS Daily Summary
Time(PST)TemperatureDew PointHumidity Pressure Visibility Wind DirectionWind SpeedGust SpeedPrecipitationEvents Conditions
12:21 AM 32.0°F 30.2°F 93% 29.81 in 2.0 miles Calm Calm - N/A   Mostly Cloudy
12:38 AM 32.0°F 30.2°F 93% 29.81 in 1.2 miles Calm Calm - N/A   Scattered Clouds
12:47 AM 32.0°F 30.2°F 93% 29.80 in 2.0 miles Calm Calm - N/A   Scattered Clouds
12:53 AM 32.0°F 30.9°F 96% 29.80 in 4.0 miles Calm Calm - N/A   Partly Cloudy
1:19 AM 30.2°F 30.2°F 100% 29.79 in 2.0 miles Calm Calm - N/A   Clear
1:29 AM 30.2°F 28.4°F 93% 29.79 in 4.0 miles Calm Calm - N/A   Partly Cloudy
1:46 AM 30.2°F 28.4°F 93% 29.79 in 2.0 miles Calm Calm - N/A   Partly Cloudy
1:53 AM 28.9°F 28.0°F 96% 29.79 in 4.0 miles Calm Calm - N/A   Clear
2:12 AM 30.2°F 28.4°F 93% 29.78 in 1.5 miles Calm Calm - N/A   Clear
2:22 AM 30.2°F 28.4°F 93% 29.78 in 3.0 miles Calm Calm - N/A   Clear
2:53 AM 30.0°F 28.9°F 96% 29.77 in 5.0 miles Calm Calm - N/A   Mostly Cloudy
3:53 AM 33.1°F 32.0°F 96% 29.78 in 6.0 miles Calm Calm - 0.00 in Rain Light Rain
4:53 AM 36.0°F 34.0°F 93% 29.76 in 10.0 miles Calm Calm - 0.01 in   Mostly Cloudy
5:53 AM 39.0°F 35.1°F 86% 29.76 in 10.0 miles East 3.5 mph - N/A   Overcast
6:53 AM 41.0°F 35.1°F 79% 29.75 in 10.0 miles ESE 8.1 mph - 0.00 in   Overcast
7:53 AM 41.0°F 36.0°F 82% 29.78 in 7.0 miles SE 3.5 mph - 0.03 in Rain Light Rain
8:53 AM 41.0°F 37.0°F 86% 29.78 in 10.0 miles ESE 6.9 mph - 0.02 in   Overcast
9:53 AM 42.1°F 37.9°F 85% 29.79 in 10.0 miles SE 4.6 mph - 0.00 in   Overcast
10:53 AM 43.0°F 37.0°F 80% 29.79 in 10.0 miles SE 6.9 mph - N/A   Overcast
11:53 AM 44.1°F 37.9°F 79% 29.78 in 10.0 miles ESE 8.1 mph - 0.01 in   Overcast
12:53 PM 45.0°F 37.9°F 76% 29.74 in 10.0 miles ESE 8.1 mph - N/A   Overcast
1:53 PM 46.0°F 39.0°F 76% 29.73 in 10.0 miles ESE 5.8 mph - N/A   Mostly Cloudy
2:53 PM 45.0°F 37.0°F 74% 29.73 in 10.0 miles ESE 4.6 mph - N/A   Overcast
3:53 PM 44.1°F 37.9°F 79% 29.73 in 10.0 miles SE 4.6 mph - 0.00 in   Overcast
4:53 PM 44.1°F 37.0°F 76% 29.71 in 10.0 miles ESE 5.8 mph - N/A   Overcast
5:53 PM 43.0°F 37.0°F 80% 29.70 in 10.0 miles SE 4.6 mph - 0.00 in   Overcast
6:53 PM 43.0°F 37.0°F 80% 29.70 in 10.0 miles ESE 9.2 mph - 0.00 in Rain Light Rain
7:53 PM 42.1°F 37.9°F 85% 29.70 in 10.0 miles East 9.2 mph - 0.02 in Rain Light Rain
8:53 PM 42.1°F 37.9°F 85% 29.68 in 10.0 miles Calm Calm - 0.00 in   Overcast
9:53 PM 42.1°F 37.0°F 82% 29.67 in 10.0 miles SE 6.9 mph - N/A   Mostly Cloudy
10:53 PM 42.1°F 37.0°F 82% 29.66 in 10.0 miles Calm Calm - N/A   Scattered Clouds
11:53 PM 39.9°F 37.0°F 89% 29.62 in 10.0 miles Calm Calm - N/A   Mostly Cloudy
Moon Phase
Dec. 21 Dec. 28 Jan. 04 Jan. 11 Jan. 18
Sunrise:07:48 AM (PST) Moon Rise:12:30 PM (PST)12/21
Sunset:04:29 PM (PST) Moon Set:01:28 AM (PST)12/21

Copyright © 2014 The Weather Underground, Inc.